STARLINK-1446, 45663

Orbit data source: Space-Track

STARLINK-1446, 45663 is a payload satellite owned by SpaceX/Seattle (US) in LEO that was launched on Thu, 04 Jun 2020 UTC via an FALCON 9 launch vehicle from the Air Force Eastern Test Range (AFETR). Payload-class satellites include a variety of spacecraft equipped with specific instruments for various scientific and technological missions. These include communications satellites like Starlink; space stations such as the ISS; scientific satellites like the Hubble; Earth observation satellites from companies like Planet Labs, Umbra, and HawkEye 360; GPS; miniature CubeSats for education and research; and military/defense satellites.

Loading next visibility...
Identifier
45663, 2020-035G
Orbit
LEO
Country
Flag of USUS
Related business
Manufacturer
SpaceX/Seattle
Mission
Partially operational Commercial Communications
Bus & Motor
STARLINK, Unknown motor
Mass
260 kg wet, ~248 kg dry
Launch date (UTC)
2020-06-04 (5 years ago)
Launch vehicle
FALCON 9
Launch site
Air Force Eastern Test Range (AFETR)
Object type
Payload
Rocket body
Debris
Shape & HBR
Box + 1 Pan, 10.1 m
Radar Cross Section
13.562 m², Large (>1 m²)

Expand to show TLE details & history
Last TLE update: 14 hours ago

TLE from 14 hours ago
0 STARLINK-1446
1 45663U 20035G   25287.82599746  .00043081  00000-0  14003-2 0  9994
2 45663  53.0280 327.4573 0001766 230.0218 130.0627 15.31506769297225
Epoch: 2025-10-14T19:49Z
TLE epoch observation values (Epoch: 2025-10-14T19:49:26.180Z)
Latitude
-0°
Longitude
6.48936°
Altitude
472.981 km
Speed
7.63 km/s
True Right ascension
21h 49m 49s
True Declination
0° 00' 00"
Sunlit
Object was in full shadow at epoch
Visualization orbit readout
Latitude
Unknown
Longitude
Unknown
Altitude
Unknown
Speed
Unknown
Apparent Right ascension
Unknown
Apparent Declination
Unknown
Sunlit
N/A
Visualization observer readout
Local Sidereal Time
04:37:53
Azimuth
Unknown
Elevation
Unknown
Doppler factor
Unknown
Orbital elements
Apogee altitude
472.804 km
Perigee altitude
470.384 km
Semi-major axis
6,849.731 km
Eccentricity
0.00018
Inclination
53.028°
RAAN
327.4573°
Arg. of periapsis
230.0218°
True anomaly
130.07819°
Mean anomaly
130.0627°
Eccentric anomaly
130.07044°
Mean motion
3.82854 °/min
Orbital period
94.03 mins
BSTAR
0.0014003
Loading maneuver chart data...
Computing Atmospheric mass density...
Loading historical data...
Loading historical data...
Loading historical data...
Loading historical data...
Loading historical data...
Loading historical data...
Loading historical data...

Documentation

Showing up to 5 results
|